Location: Marcé
(47.5801°N, 0.3280°W)
Time: 08:05:55
(UTC+01:00)

Vanguard 1 - Pass Details

Date: 09 December 2021
Orbit: 652 x 3830 km, 34.2° (Epoch: 16 January)

Event Time Altitude Azimuth Distance (km) Brightness Sun altitude
Enters shadow 00:48:10 - 244° (WSW) 6,939 14.3 -65.2°
Exits shadow 01:28:56 22° 107° (ESE) 5,531 13.7 -64.2°
Drops below altitude 10° 01:33:53 10° 101° (E) 6,269 14.1 -64.0°
Sets 01:38:12 0° 97° (E) 6,986 14.5 -63.7°
